| time (UTC) | temp F | wind direction | speed MPH | gust MPH | rain 1hr in | rain 24hr in | rain mn in | humidity % | barometer mb |
| 20260903041104 | 59 | 166 | 2.0 | 6.0 | 0.00 | 0.01 | 0.00 | 95 | 1017.8 |
| 20260903040103 | 59 | 116 | 2.0 | 3.0 | 0.00 | 0.01 | 0.01 | 95 | 1017.8 |
| 20260903035104 | 59 | 40 | 0.0 | 0.0 | 0.00 | 0.01 | 0.01 | 94 | 1018.0 |
| 20260903034103 | 59 | 40 | 0.0 | 0.0 | 0.00 | 0.01 | 0.01 | 94 | 1018.3 |
| 20260903033103 | 59 | 40 | 0.0 | 0.0 | 0.00 | 0.01 | 0.01 | 93 | 1018.4 |
| 20260903032104 | 59 | 40 | 0.0 | 0.0 | 0.00 | 0.01 | 0.01 | 94 | 1018.5 |
| 20260903031124 | 59 | 40 | 0.0 | 0.0 | 0.00 | 0.01 | 0.01 | 94 | 1018.5 |
| 20260903030104 | 59 | 86 | 0.0 | 0.0 | 0.00 | 0.01 | 0.01 | 94 | 1018.6 |
| 20260903025103 | 59 | 86 | 0.0 | 1.0 | 0.00 | 0.01 | 0.01 | 94 | 1018.7 |
| 20260903024104 | 59 | 5 | 0.0 | 1.0 | 0.00 | 0.01 | 0.01 | 93 | 1018.8 |
| 20260903023103 | 59 | 5 | 1.0 | 3.0 | 0.00 | 0.01 | 0.01 | 93 | 1018.9 |
| 20260903022104 | 59 | 5 | 2.0 | 3.0 | 0.00 | 0.01 | 0.01 | 93 | 1018.8 |
| 20260903021125 | 60 | 148 | 0.0 | 3.0 | 0.00 | 0.01 | 0.01 | 93 | 1018.6 |
| 20260903015104 | 60 | 187 | 2.0 | 6.0 | 0.00 | 0.01 | 0.01 | 92 | 1018.8 |
| 20260903014125 | 60 | 167 | 2.0 | 4.0 | 0.00 | 0.01 | 0.01 | 91 | 1018.9 |
| 20260903013124 | 61 | 152 | 0.0 | 1.0 | 0.00 | 0.01 | 0.01 | 92 | 1019.0 |
| 20260903012103 | 61 | 155 | 2.0 | 5.0 | 0.00 | 0.01 | 0.01 | 90 | 1019.0 |
| 20260903011103 | 61 | 141 | 0.0 | 2.0 | 0.00 | 0.01 | 0.01 | 90 | 1019.2 |
| 20260903010104 | 62 | 141 | 1.0 | 2.0 | 0.00 | 0.01 | 0.01 | 91 | 1019.1 |
| 20260903005103 | 62 | 141 | 0.0 | 1.0 | 0.00 | 0.01 | 0.01 | 89 | 1019.1 |
| 20260903004104 | 62 | 143 | 1.0 | 4.0 | 0.00 | 0.01 | 0.01 | 89 | 1019.0 |
| 20260903003103 | 62 | 144 | 1.0 | 3.0 | 0.00 | 0.01 | 0.01 | 89 | 1019.0 |
| 20260903002103 | 62 | 137 | 2.0 | 4.0 | 0.00 | 0.01 | 0.01 | 89 | 1019.2 |
| 20260903001104 | 62 | 137 | 1.0 | 3.0 | 0.00 | 0.01 | 0.01 | 88 | 1019.4 |
| 20260903000124 | 63 | 203 | 0.0 | 0.0 | 0.00 | 0.01 | 0.01 | 88 | 1019.8 |
| 20260902235104 | 64 | 258 | 0.0 | 2.0 | 0.00 | 0.01 | 0.01 | 87 | 1019.9 |
| 20260902234124 | 64 | 209 | 0.0 | 0.0 | 0.00 | 0.01 | 0.01 | 86 | 1019.8 |
| 20260902233103 | 65 | 208 | 0.0 | 3.0 | 0.00 | 0.01 | 0.01 | 83 | 1019.8 |
| 20260902232103 | 66 | 160 | 1.0 | 2.0 | 0.00 | 0.01 | 0.01 | 81 | 1019.7 |
| 20260902231104 | 67 | 200 | 1.0 | 2.0 | 0.00 | 0.01 | 0.01 | 80 | 1019.8 |
| 20260902230104 | 67 | 201 | 0.0 | 2.0 | 0.00 | 0.01 | 0.01 | 78 | 1019.8 |
| 20260902225103 | 68 | 216 | 0.0 | 4.0 | 0.00 | 0.01 | 0.01 | 74 | 1020.0 |
| 20260902224104 | 68 | 140 | 2.0 | 7.0 | 0.00 | 0.01 | 0.01 | 73 | 1019.8 |
| 20260902223103 | 69 | 160 | 3.0 | 8.0 | 0.00 | 0.01 | 0.01 | 72 | 1019.8 |
| 20260902222124 | 69 | 150 | 4.0 | 9.0 | 0.00 | 0.01 | 0.01 | 72 | 1019.6 |
| 20260902221104 | 70 | 165 | 5.0 | 12.0 | 0.00 | 0.01 | 0.01 | 69 | 1019.7 |
| 20260902215104 | 71 | 156 | 7.0 | 12.0 | 0.00 | 0.01 | 0.01 | 68 | 1019.5 |
| 20260902214103 | 71 | 160 | 9.0 | 13.0 | 0.00 | 0.01 | 0.01 | 68 | 1019.3 |
| 20260902213124 | 71 | 163 | 6.0 | 9.0 | 0.00 | 0.01 | 0.01 | 70 | 1019.3 |
| 20260902212104 | 71 | 165 | 7.0 | 11.0 | 0.00 | 0.01 | 0.01 | 70 | 1019.1 |
| 20260902211103 | 72 | 153 | 4.0 | 7.0 | 0.00 | 0.01 | 0.01 | 71 | 1019.6 |
| 20260902210103 | 72 | 153 | 2.0 | 8.0 | 0.00 | 0.01 | 0.01 | 69 | 1019.8 |
| 20260902205124 | 72 | 161 | 4.0 | 9.0 | 0.00 | 0.01 | 0.01 | 69 | 1019.7 |
| 20260902204104 | 73 | 151 | 3.0 | 9.0 | 0.00 | 0.01 | 0.01 | 70 | 1019.6 |
| 20260902203103 | 73 | 161 | 7.0 | 12.0 | 0.00 | 0.02 | 0.01 | 67 | 1019.6 |
| 20260902202104 | 74 | 168 | 8.0 | 13.0 | 0.00 | 0.02 | 0.01 | 64 | 1019.6 |
| 20260902201103 | 74 | 158 | 9.0 | 13.0 | 0.00 | 0.02 | 0.01 | 67 | 1019.4 |
| 20260902200124 | 74 | 155 | 7.0 | 11.0 | 0.00 | 0.02 | 0.01 | 67 | 1019.5 |
| 20260902195103 | 75 | 167 | 7.0 | 11.0 | 0.00 | 0.03 | 0.01 | 65 | 1019.7 |
| 20260902194103 | 75 | 179 | 7.0 | 10.0 | 0.00 | 0.04 | 0.01 | 65 | 1019.8 |
| 20260902193104 | 75 | 132 | 4.0 | 10.0 | 0.00 | 0.05 | 0.01 | 65 | 1019.9 |
| 20260902192103 | 75 | 127 | 4.0 | 9.0 | 0.00 | 0.05 | 0.01 | 64 | 1020.0 |
| 20260902191103 | 75 | 139 | 4.0 | 8.0 | 0.00 | 0.05 | 0.01 | 65 | 1020.0 |
| 20260902185103 | 75 | 152 | 4.0 | 8.0 | 0.00 | 0.05 | 0.01 | 62 | 1020.0 |
| 20260902184104 | 75 | 106 | 4.0 | 11.0 | 0.00 | 0.05 | 0.01 | 62 | 1019.9 |
| 20260902183103 | 75 | 143 | 4.0 | 12.0 | 0.00 | 0.05 | 0.01 | 59 | 1019.8 |
| 20260902182103 | 75 | 113 | 5.0 | 11.0 | 0.00 | 0.05 | 0.01 | 60 | 1019.7 |
| 20260902181103 | 75 | 151 | 2.0 | 11.0 | 0.00 | 0.07 | 0.01 | 63 | 1019.8 |
| 20260902180104 | 75 | 94 | 5.0 | 15.0 | 0.00 | 0.11 | 0.01 | 59 | 1019.9 |
| 20260902175103 | 75 | 110 | 4.0 | 11.0 | 0.00 | 0.17 | 0.01 | 59 | 1020.1 |
| 20260902174104 | 75 | 94 | 5.0 | 12.0 | 0.00 | 0.21 | 0.01 | 59 | 1020.1 |
| 20260902173103 | 75 | 104 | 5.0 | 13.0 | 0.00 | 0.22 | 0.01 | 60 | 1020.1 |
| 20260902172103 | 75 | 23 | 5.0 | 13.0 | 0.00 | 0.22 | 0.01 | 64 | 1020.4 |
| 20260902171104 | 74 | 128 | 9.0 | 13.0 | 0.00 | 0.22 | 0.01 | 58 | 1020.4 |
| 20260902170103 | 74 | 142 | 6.0 | 11.0 | 0.00 | 0.22 | 0.01 | 62 | 1020.3 |
| 20260902165103 | 74 | 118 | 5.0 | 11.0 | 0.00 | 0.22 | 0.01 | 60 | 1020.4 |
| 20260902164103 | 74 | 148 | 7.0 | 12.0 | 0.00 | 0.22 | 0.01 | 61 | 1020.5 |
| 20260902163103 | 74 | 150 | 7.0 | 16.0 | 0.00 | 0.22 | 0.01 | 59 | 1020.6 |
| 20260902162103 | 74 | 150 | 9.0 | 17.0 | 0.00 | 0.22 | 0.01 | 62 | 1020.6 |
| 20260902161104 | 73 | 87 | 5.0 | 12.0 | 0.00 | 0.22 | 0.01 | 61 | 1020.7 |
| 20260902160103 | 73 | 138 | 6.0 | 12.0 | 0.00 | 0.22 | 0.01 | 62 | 1020.8 |
| 20260902155125 | 74 | 97 | 7.0 | 11.0 | 0.00 | 0.22 | 0.01 | 63 | 1021.0 |
| 20260902154125 | 74 | 91 | 3.0 | 12.0 | 0.00 | 0.22 | 0.01 | 65 | 1021.1 |
| 20260902153103 | 73 | 142 | 5.0 | 11.0 | 0.00 | 0.22 | 0.01 | 67 | 1021.1 |
| 20260902152125 | 73 | 105 | 5.0 | 12.0 | 0.00 | 0.22 | 0.01 | 71 | 1021.0 |
| 20260902151103 | 72 | 137 | 5.0 | 13.0 | 0.00 | 0.22 | 0.01 | 72 | 1021.0 |
| 20260902150104 | 72 | 129 | 6.0 | 14.0 | 0.00 | 0.22 | 0.01 | 70 | 1021.2 |
| 20260902145103 | 72 | 104 | 4.0 | 11.0 | 0.00 | 0.22 | 0.01 | 74 | 1021.2 |
| 20260902144125 | 71 | 118 | 5.0 | 9.0 | 0.00 | 0.24 | 0.01 | 75 | 1021.1 |
| 20260902143104 | 71 | 116 | 4.0 | 11.0 | 0.00 | 0.25 | 0.01 | 74 | 1021.0 |
| 20260902142124 | 70 | 131 | 4.0 | 9.0 | 0.00 | 0.26 | 0.01 | 79 | 1020.8 |
| 20260902141103 | 69 | 106 | 5.0 | 9.0 | 0.00 | 0.26 | 0.01 | 84 | 1020.6 |
| 20260902140124 | 68 | 103 | 3.0 | 10.0 | 0.00 | 0.27 | 0.01 | 84 | 1020.6 |
| 20260902135103 | 68 | 78 | 8.0 | 12.0 | 0.00 | 0.27 | 0.01 | 82 | 1020.5 |
| 20260902134103 | 68 | 108 | 4.0 | 12.0 | 0.00 | 0.27 | 0.01 | 86 | 1020.1 |
| 20260902133104 | 68 | 115 | 6.0 | 11.0 | 0.00 | 0.28 | 0.01 | 87 | 1020.1 |
| 20260902132103 | 67 | 122 | 2.0 | 8.0 | 0.00 | 0.28 | 0.01 | 92 | 1020.2 |
| 20260902131104 | 65 | 103 | 2.0 | 7.0 | 0.00 | 0.29 | 0.01 | 94 | 1020.3 |
| 20260902130124 | 65 | 109 | 1.0 | 5.0 | 0.00 | 0.29 | 0.01 | 95 | 1020.5 |
| 20260902125104 | 64 | 79 | 1.0 | 6.0 | 0.00 | 0.29 | 0.01 | 96 | 1020.6 |
| 20260902124103 | 64 | 77 | 2.0 | 4.0 | 0.00 | 0.30 | 0.01 | 97 | 1020.6 |
| 20260902123103 | 63 | 86 | 2.0 | 4.0 | 0.00 | 0.30 | 0.01 | 98 | 1020.5 |
| 20260902122103 | 63 | 90 | 1.0 | 4.0 | 0.00 | 0.30 | 0.01 | 98 | 1020.7 |
| 20260902121103 | 63 | 30 | 2.0 | 6.0 | 0.00 | 0.30 | 0.01 | 98 | 1020.8 |
| 20260902115104 | 60 | 30 | 1.0 | 5.0 | 0.00 | 0.30 | 0.01 | 98 | 1020.9 |
| 20260902114103 | 58 | 26 | 2.0 | 3.0 | 0.00 | 0.30 | 0.01 | 97 | 1020.9 |
| 20260902113125 | 58 | 23 | 1.0 | 3.0 | 0.00 | 0.30 | 0.01 | 97 | 1020.7 |
| 20260902112103 | 58 | 3 | 2.0 | 3.0 | 0.00 | 0.30 | 0.01 | 97 | 1020.8 |
| 20260902111104 | 58 | 9 | 2.0 | 3.0 | 0.00 | 0.30 | 0.01 | 97 | 1020.6 |
| 20260902110104 | 58 | 359 | 2.0 | 3.0 | 0.00 | 0.30 | 0.01 | 96 | 1020.5 |
| 20260902105103 | 58 | 9 | 2.0 | 2.0 | 0.00 | 0.30 | 0.01 | 96 | 1020.4 |
| 20260902104125 | 58 | 31 | 2.0 | 3.0 | 0.00 | 0.30 | 0.01 | 96 | 1020.2 |
| 20260902103125 | 58 | 27 | 0.0 | 2.0 | 0.00 | 0.30 | 0.01 | 96 | 1020.1 |
| 20260902102103 | 58 | 27 | 1.0 | 3.0 | 0.00 | 0.30 | 0.01 | 96 | 1020.0 |
| 20260902101104 | 58 | 49 | 1.0 | 2.0 | 0.00 | 0.30 | 0.01 | 96 | 1019.8 |
| 20260902095104 | 59 | 46 | 1.0 | 2.0 | 0.00 | 0.30 | 0.01 | 97 | 1019.8 |
| 20260902094124 | 58 | 46 | 1.0 | 2.0 | 0.00 | 0.30 | 0.01 | 97 | 1019.6 |
| 20260902093103 | 58 | 73 | 1.0 | 3.0 | 0.00 | 0.30 | 0.01 | 97 | 1019.6 |
| 20260902092103 | 58 | 42 | 1.0 | 3.0 | 0.00 | 0.30 | 0.01 | 96 | 1019.5 |
| 20260902091125 | 58 | 65 | 1.0 | 2.0 | 0.00 | 0.30 | 0.01 | 96 | 1019.5 |
| 20260902085103 | 58 | 359 | 1.0 | 3.0 | 0.01 | 0.30 | 0.01 | 96 | 1019.6 |
| 20260902084103 | 59 | 5 | 2.0 | 3.0 | 0.01 | 0.30 | 0.01 | 96 | 1019.5 |
| 20260902083103 | 59 | 18 | 2.0 | 4.0 | 0.00 | 0.29 | 0.00 | 96 | 1019.4 |
| 20260902082103 | 59 | 346 | 3.0 | 3.0 | 0.00 | 0.29 | 0.00 | 96 | 1019.4 |
| 20260902081104 | 59 | 94 | 1.0 | 3.0 | 0.00 | 0.29 | 0.00 | 96 | 1019.3 |
| 20260902075103 | 59 | 36 | 1.0 | 4.0 | 0.00 | 0.29 | 0.00 | 97 | 1019.4 |
| 20260902074103 | 59 | 14 | 2.0 | 4.0 | 0.00 | 0.29 | 0.00 | 96 | 1019.5 |
| 20260902073104 | 59 | 15 | 2.0 | 3.0 | 0.00 | 0.29 | 0.00 | 96 | 1019.5 |
| 20260902072103 | 59 | 9 | 2.0 | 3.0 | 0.00 | 0.29 | 0.00 | 96 | 1019.4 |
| 20260902071146 | 59 | 354 | 2.0 | 3.0 | 0.00 | 0.29 | 0.00 | 96 | 1019.4 |
| 20260902065104 | 59 | 37 | 1.0 | 3.0 | 0.00 | 0.29 | 0.00 | 96 | 1019.2 |
| 20260902064103 | 60 | 324 | 1.0 | 3.0 | 0.00 | 0.29 | 0.00 | 96 | 1019.1 |
| 20260902063104 | 60 | 36 | 1.0 | 3.0 | 0.00 | 0.29 | 0.00 | 96 | 1019.0 |
| 20260902062103 | 60 | 60 | 2.0 | 4.0 | 0.00 | 0.29 | 0.00 | 96 | 1019.0 |
| 20260902061103 | 60 | 47 | 1.0 | 4.0 | 0.00 | 0.29 | 0.00 | 97 | 1019.2 |
| 20260902060124 | 60 | 26 | 2.0 | 5.0 | 0.00 | 0.29 | 0.00 | 97 | 1019.3 |
| 20260902055124 | 59 | 27 | 1.0 | 5.0 | 0.00 | 0.29 | 0.00 | 97 | 1019.2 |
| 20260902054125 | 59 | 38 | 2.0 | 4.0 | 0.00 | 0.29 | 0.00 | 97 | 1019.1 |
| 20260902053103 | 59 | 17 | 2.0 | 5.0 | 0.00 | 0.29 | 0.00 | 96 | 1019.1 |
| 20260902052104 | 59 | 43 | 2.0 | 3.0 | 0.00 | 0.29 | 0.00 | 96 | 1018.8 |
| 20260902051103 | 59 | 354 | 2.0 | 3.0 | 0.00 | 0.29 | 0.00 | 95 | 1019.0 |
| 20260902050104 | 59 | 354 | 1.0 | 2.0 | 0.00 | 0.29 | 0.00 | 96 | 1019.1 |
| 20260902045103 | 59 | 354 | 1.0 | 3.0 | 0.00 | 0.29 | 0.00 | 96 | 1019.0 |
| 20260902044104 | 59 | 349 | 3.0 | 5.0 | 0.00 | 0.29 | 0.00 | 96 | 1019.0 |
| 20260902043103 | 59 | 359 | 1.0 | 3.0 | 0.00 | 0.29 | 0.00 | 95 | 1018.8 |
| 20260902042104 | 60 | 70 | 1.0 | 2.0 | 0.00 | 0.29 | 0.00 | 96 | 1018.5 |